Miscellaneous Local Product
Issued by NWS Hastings, NE

Home | Current Version | Previous Version | Graphics & Text | Print | Product List | Glossary On
Versions: 1 2 3 4 5 6 7 8 9 10 11 12 13 14 15 16 17 18 19 20 21 22 23 24 25 26 27 28 29 30 31 32 33 34 35 36 37 38 39 40 41 42 43 44 45 46 47 48 49 50
000
AXUS43 KGID 031702
MISGRI

GID CWA HOURLY WEATHER ROUNDUP
NATIONAL WEATHER SERVICE HASTINGS NE
1100 AM CST TUE MAR 03 2015

NOTE: "FAIR" INDICATES FEW OR NO CLOUDS BELOW 12,000 FEET WITH NO
SIGNIFICANT WEATHER AND/OR OBSTRUCTIONS TO VISIBILITY.

...SOUTH CENTRAL NEBRASKA...

CITY           SKY/WX    TMP DP  RH WIND       PRES   REMARKS
GRAND ISLAND   CLOUDY    28  16  60 N31G41    29.89R WCI  12
HASTINGS       CLOUDY    30  18  60 N31       29.86R WCI  15
KEARNEY        PTSUNNY   28  14  54 N30G36    29.89R WCI  13
ORD            CLOUDY    24  10  55 N26G38    29.92R WCI   8
YORK           CLOUDY    36  27  69 NW25      29.81R WCI  23
AURORA         CLOUDY    31  21  68 NW29G37   29.85R WCI  16
LEXINGTON      PTSUNNY   29  15  56 N23G35    29.92R WCI  15
HOLDREGE       CLOUDY    27  15  59 N23G36    29.88R WCI  13
HEBRON         CLOUDY    37  25  60 N16G31    29.83R WCI  28

...NEBRASKA PANHANDLE...

CITY           SKY/WX    TMP DP  RH WIND       PRES   REMARKS
CHADRON        CLOUDY    17   8  67 NE12      30.02S WCI   4
ALLIANCE       FLURRIES  17   9  70 N22G30    29.95S WCI   0
SCOTTSBLUFF    LGT SNOW  19  11  70 N12       29.99R WCI   7
SIDNEY         CLOUDY    19   9  65 N21G32    29.93S WCI   3

...WESTERN AND NORTH CENTRAL NEBRASKA...

CITY           SKY/WX    TMP DP  RH WIND       PRES   REMARKS
VALENTINE      CLOUDY    18   6  59 N29G39    29.99R WCI  -1
AINSWORTH      PTSUNNY   20  11  67 N29G36    29.98R WCI   1
ONEILL         LGT SNOW  23  17  78 NW29G36   29.92R WCI   5
BROKEN BOW     PTSUNNY   26  12  55 N32G40    29.92R WCI   9
IMPERIAL         N/A     24  12  60 N25G33    29.94R WCI   8
NORTH PLATTE   CLOUDY    23   9  55 N24G33    29.95R WCI   7
MCCOOK         PTSUNNY   31  14  49 N22       29.92R WCI  18

...EASTERN NEBRASKA...

CITY           SKY/WX    TMP DP  RH WIND       PRES   REMARKS
NORFOLK        CLOUDY    25  15  66 NW32G40   29.86R WCI   8
SO SIOUX CITY  CLOUDY    33  25  72 NW22G30   29.79R WCI  21
TEKAMAH        CLOUDY    36  28  73 NW24      29.79R WCI  24
COLUMBUS       CLOUDY    30  16  55 NW33G40   29.85R WCI  14
ALBION         CLOUDY    25  13  62 NW31G40   29.88R WCI   8
OMAHA EPPLEY   CLOUDY    35  29  78 NW17G24   29.78R WCI  25
OFFUTT AFB     CLOUDY    36  28  75 NW12G24   29.77R WCI  27
MILLARD        CLOUDY    35  29  80 NW15G21   29.78R WCI  25
LINCOLN        CLOUDY    37  27  67 NW21G30   29.82R WCI  26
NEBRASKA CITY  CLOUDY    35  32  88 NW16G26   29.77R FOG     WCI  25
BEATRICE       CLOUDY    37  28  68 NW25      29.80R WCI  26
FALLS CITY     CLOUDY    39  31  72 NW21G30   29.78R WCI  29

...NORTHERN KANSAS...

CITY           SKY/WX    TMP DP  RH WIND       PRES   REMARKS
GOODLAND       CLOUDY    29  23  78 N25G32    29.88R WCI  14
HILL CITY      CLOUDY    36  27  69 N22G28    29.88R WCI  25
NORTON         MOSUNNY   34  18  51 N22G28    29.89R WCI  22
PHILLIPSBURG   CLOUDY    37  27  65 NW23G33   29.89R WCI  26
SMITH CENTER   MOSUNNY   37  27  65 N22G28    29.87R WCI  27
BELOIT         SUNNY     43  27  52 N20G28    29.84R
HAYS           PTSUNNY   39  23  52 N20G28    29.87R WCI  30
RUSSELL        MOSUNNY   40  27  59 NW22      29.85R WCI  30
CONCORDIA      PTSUNNY   41  27  57 N18G30    29.83R
SALINA         PTSUNNY   44  29  55 NW21      29.84R
TOPEKA         CLOUDY    48  36  63 W12G24    29.78R



USA.gov is the U.S. government's official web portal to all federal, state and local government web resources and services.